Time,TemperatureF,DewpointF,PressureIn,WindDirection,WindDirectionDegrees,WindSpeedMPH,WindSpeedGustMPH,Humidity,HourlyPrecipIn,Conditions,Clouds,dailyrainin,SoftwareType,DateUTC
2013-05-30 00:06:00,77.9,61.0,30.09,West,264,4.0,8.3,56,0.00,,,-99.99,FreeWX 2.05,2013-05-30 04:06:00,
2013-05-30 00:16:00,77.9,61.9,30.09,West,270,3.0,7.4,58,0.00,,,-99.99,FreeWX 2.05,2013-05-30 04:16:00,
2013-05-30 00:26:00,77.9,63.0,30.09,West,267,3.0,6.7,60,0.00,,,-99.99,FreeWX 2.05,2013-05-30 04:26:00,
2013-05-30 00:36:00,77.7,63.1,30.09,West,270,2.0,8.3,61,0.00,,,-99.99,FreeWX 2.05,2013-05-30 04:36:00,
2013-05-30 00:46:00,77.7,63.7,30.09,West,267,4.0,7.4,62,0.00,,,-99.99,FreeWX 2.05,2013-05-30 04:46:00,
2013-05-30 00:56:00,77.5,63.5,30.09,West,264,3.0,7.8,62,0.00,,,-99.99,FreeWX 2.05,2013-05-30 04:56:00,
2013-05-30 01:06:00,77.5,63.9,30.09,West,259,3.0,5.8,63,0.00,,,-99.99,FreeWX 2.05,2013-05-30 05:06:00,
2013-05-30 01:16:00,77.4,64.2,30.09,West,267,3.0,6.9,64,0.00,,,-99.99,FreeWX 2.05,2013-05-30 05:16:00,
2013-05-30 01:26:00,77.4,64.2,30.09,West,263,3.0,6.3,64,0.00,,,-99.99,FreeWX 2.05,2013-05-30 05:26:00,
2013-05-30 01:36:00,77.4,64.6,30.09,West,259,2.0,4.9,65,0.00,,,-99.99,FreeWX 2.05,2013-05-30 05:36:00,
2013-05-30 01:46:00,77.2,64.4,30.09,West,267,3.0,9.2,65,0.00,,,-99.99,FreeWX 2.05,2013-05-30 05:46:00,
2013-05-30 01:56:00,77.2,64.4,30.09,West,265,3.0,6.3,65,0.00,,,-99.99,FreeWX 2.05,2013-05-30 05:56:00,
2013-05-30 02:06:00,77.2,64.4,30.09,West,262,3.0,5.4,65,0.00,,,-99.99,FreeWX 2.05,2013-05-30 06:06:00,
2013-05-30 02:16:00,77.2,64.9,30.09,West,265,3.0,6.3,66,0.00,,,-99.99,FreeWX 2.05,2013-05-30 06:16:00,
2013-05-30 02:26:00,77.0,64.8,30.09,West,266,4.0,6.7,66,0.00,,,-99.99,FreeWX 2.05,2013-05-30 06:26:00,
2013-05-30 02:36:00,77.0,64.8,30.06,West,260,3.0,6.9,66,0.00,,,-99.99,FreeWX 2.05,2013-05-30 06:36:00,
2013-05-30 02:46:00,77.0,64.8,30.06,West,265,2.0,5.4,66,0.00,,,-99.99,FreeWX 2.05,2013-05-30 06:46:00,
2013-05-30 03:06:00,76.8,64.9,30.06,West,268,3.0,6.7,67,0.00,,,-99.99,FreeWX 2.05,2013-05-30 07:06:00,
2013-05-30 03:16:00,76.6,65.3,30.06,West,268,3.0,5.8,68,0.00,,,-99.99,FreeWX 2.05,2013-05-30 07:16:00,
2013-05-30 03:26:00,76.6,65.3,30.06,West,270,3.0,6.3,68,0.00,,,-99.99,FreeWX 2.05,2013-05-30 07:26:00,
2013-05-30 03:36:00,76.6,65.7,30.06,West,263,3.0,6.7,69,0.00,,,-99.99,FreeWX 2.05,2013-05-30 07:36:00,
2013-05-30 03:46:00,76.6,65.7,30.06,West,264,3.0,5.8,69,0.00,,,-99.99,FreeWX 2.05,2013-05-30 07:46:00,
2013-05-30 03:56:00,76.5,65.8,30.06,West,263,4.0,6.7,70,0.00,,,-99.99,FreeWX 2.05,2013-05-30 07:56:00,
2013-05-30 04:06:00,76.5,65.8,30.06,West,263,3.0,6.9,70,0.00,,,-99.99,FreeWX 2.05,2013-05-30 08:06:00,
2013-05-30 04:16:00,76.5,65.8,30.06,West,259,3.0,7.4,70,0.00,,,-99.99,FreeWX 2.05,2013-05-30 08:16:00,
2013-05-30 04:26:00,76.3,65.8,30.06,West,261,3.0,6.7,70,0.00,,,-99.99,FreeWX 2.05,2013-05-30 08:26:00,
2013-05-30 04:36:00,76.3,65.8,30.06,West,262,3.0,6.9,70,0.00,,,-99.99,FreeWX 2.05,2013-05-30 08:36:00,
2013-05-30 04:46:00,76.3,66.2,30.06,West,261,3.0,5.8,71,0.00,,,-99.99,FreeWX 2.05,2013-05-30 08:46:00,
2013-05-30 04:56:00,76.3,66.2,30.06,West,265,3.0,5.8,71,0.00,,,-99.99,FreeWX 2.05,2013-05-30 08:56:00,
2013-05-30 05:06:00,76.3,66.2,30.06,West,262,3.0,6.9,71,0.00,,,-99.99,FreeWX 2.05,2013-05-30 09:06:00,
2013-05-30 05:16:00,76.3,66.2,30.06,West,269,3.0,5.4,71,0.00,,,-99.99,FreeWX 2.05,2013-05-30 09:16:00,
2013-05-30 05:26:00,76.3,66.2,30.06,West,264,3.0,6.7,71,0.00,,,-99.99,FreeWX 2.05,2013-05-30 09:26:00,
2013-05-30 05:37:00,76.3,66.2,30.06,West,260,3.0,6.7,71,0.00,,,-99.99,FreeWX 2.05,2013-05-30 09:37:00,
2013-05-30 05:47:00,76.3,66.2,30.09,WSW,257,2.0,5.4,71,0.00,,,-99.99,FreeWX 2.05,2013-05-30 09:47:00,
2013-05-30 05:57:00,76.3,66.6,30.09,West,268,2.0,5.4,72,0.00,,,-99.99,FreeWX 2.05,2013-05-30 09:57:00,
2013-05-30 06:07:00,76.3,66.6,30.09,West,264,2.0,6.3,72,0.00,,,-99.99,FreeWX 2.05,2013-05-30 10:07:00,
2013-05-30 06:17:00,76.1,66.4,30.09,WSW,256,1.0,4.0,72,0.00,,,-99.99,FreeWX 2.05,2013-05-30 10:17:00,
2013-05-30 06:27:00,75.9,66.2,30.09,West,264,1.0,4.5,72,0.00,,,-99.99,FreeWX 2.05,2013-05-30 10:27:00,
2013-05-30 06:37:00,75.7,66.4,30.09,WSW,253,2.0,4.0,73,0.00,,,-99.99,FreeWX 2.05,2013-05-30 10:37:00,
2013-05-30 06:47:00,75.6,66.7,30.09,WSW,258,2.0,4.9,74,0.00,,,-99.99,FreeWX 2.05,2013-05-30 10:47:00,
2013-05-30 06:57:00,75.7,67.3,30.09,West,261,3.0,4.9,75,0.00,,,-99.99,FreeWX 2.05,2013-05-30 10:57:00,
2013-05-30 07:07:00,75.6,67.5,30.09,WSW,258,3.0,4.9,76,0.00,,,-99.99,FreeWX 2.05,2013-05-30 11:07:00,
2013-05-30 07:17:00,75.7,68.0,30.09,WSW,258,2.0,4.9,77,0.00,,,-99.99,FreeWX 2.05,2013-05-30 11:17:00,
2013-05-30 07:27:00,75.9,68.2,30.09,West,260,3.0,5.8,77,0.00,,,-99.99,FreeWX 2.05,2013-05-30 11:27:00,
2013-05-30 07:37:00,75.9,68.2,30.09,West,260,3.0,5.8,77,0.00,,,-99.99,FreeWX 2.05,2013-05-30 11:37:00,
2013-05-30 07:47:00,76.1,68.0,30.09,West,265,3.0,5.8,76,0.00,,,-99.99,FreeWX 2.05,2013-05-30 11:47:00,
2013-05-30 07:57:00,76.1,67.6,30.09,West,259,3.0,6.9,75,0.00,,,-99.99,FreeWX 2.05,2013-05-30 11:57:00,
2013-05-30 08:07:00,76.3,67.3,30.09,West,262,4.0,6.9,74,0.00,,,-99.99,FreeWX 2.05,2013-05-30 12:07:00,
2013-05-30 08:17:00,76.6,67.3,30.09,West,264,4.0,7.8,73,0.00,,,-99.99,FreeWX 2.05,2013-05-30 12:17:00,
2013-05-30 08:27:00,77.0,66.4,30.09,West,260,4.0,7.8,70,0.00,,,-99.99,FreeWX 2.05,2013-05-30 12:27:00,
2013-05-30 08:37:00,77.5,66.2,30.09,West,265,4.0,9.2,68,0.00,,,-99.99,FreeWX 2.05,2013-05-30 12:37:00,
2013-05-30 08:47:00,78.1,65.8,30.09,West,265,3.0,6.3,66,0.00,,,-99.99,FreeWX 2.05,2013-05-30 12:47:00,
2013-05-30 08:57:00,78.6,64.4,30.09,West,265,3.0,8.3,62,0.00,,,-99.99,FreeWX 2.05,2013-05-30 12:57:00,
2013-05-30 09:07:00,78.6,62.6,30.09,West,266,4.0,7.8,58,0.00,,,-99.99,FreeWX 2.05,2013-05-30 13:07:00,
2013-05-30 09:17:00,79.3,62.2,30.12,West,262,3.0,7.8,56,0.00,,,-99.99,FreeWX 2.05,2013-05-30 13:17:00,
2013-05-30 09:27:00,79.9,60.1,30.12,West,270,3.0,7.4,51,0.00,,,-99.99,FreeWX 2.05,2013-05-30 13:27:00,
2013-05-30 09:37:00,80.2,59.4,30.09,West,271,4.0,8.3,49,0.00,,,-99.99,FreeWX 2.05,2013-05-30 13:37:00,
2013-05-30 09:47:00,81.1,59.5,30.09,West,279,3.0,6.9,48,0.00,,,-99.99,FreeWX 2.05,2013-05-30 13:47:00,
2013-05-30 09:57:00,81.3,54.0,30.09,West,269,4.0,7.8,39,0.00,,,-99.99,FreeWX 2.05,2013-05-30 13:57:00,
2013-05-30 10:07:00,81.9,52.3,30.09,West,267,4.0,8.7,36,0.00,,,-99.99,FreeWX 2.05,2013-05-30 14:07:00,
2013-05-30 10:17:00,82.6,50.5,30.09,West,267,4.0,8.3,33,0.00,,,-99.99,FreeWX 2.05,2013-05-30 14:17:00,
2013-05-30 10:27:00,83.3,50.4,30.09,West,270,4.0,8.7,32,0.00,,,-99.99,FreeWX 2.05,2013-05-30 14:27:00,
2013-05-30 10:37:00,83.7,48.9,30.09,West,266,5.0,8.3,30,0.00,,,-99.99,FreeWX 2.05,2013-05-30 14:37:00,
2013-05-30 10:47:00,84.2,49.5,30.09,West,269,4.0,9.6,30,0.00,,,-99.99,FreeWX 2.05,2013-05-30 14:47:00,
2013-05-30 10:57:00,84.7,49.8,30.09,West,266,4.0,8.7,30,0.00,,,-99.99,FreeWX 2.05,2013-05-30 14:57:00,
2013-05-30 11:07:00,84.9,50.0,30.09,West,272,5.0,8.3,30,0.00,,,-99.99,FreeWX 2.05,2013-05-30 15:07:00,
2013-05-30 11:17:00,85.1,50.2,30.09,West,264,5.0,9.2,30,0.00,,,-99.99,FreeWX 2.05,2013-05-30 15:17:00,
2013-05-30 11:27:00,85.5,49.5,30.09,West,268,4.0,7.8,29,0.00,,,-99.99,FreeWX 2.05,2013-05-30 15:27:00,
2013-05-30 11:37:00,85.6,49.6,30.09,West,261,5.0,9.6,29,0.00,,,-99.99,FreeWX 2.05,2013-05-30 15:37:00,
2013-05-30 11:47:00,85.8,50.7,30.09,West,267,5.0,8.7,30,0.00,,,-99.99,FreeWX 2.05,2013-05-30 15:47:00,
2013-05-30 11:57:00,86.2,50.2,30.09,West,263,4.0,10.1,29,0.00,,,-99.99,FreeWX 2.05,2013-05-30 15:57:00,
2013-05-30 12:07:00,86.7,50.5,30.09,West,261,5.0,8.3,29,0.00,,,-99.99,FreeWX 2.05,2013-05-30 16:07:00,
2013-05-30 12:17:00,87.1,50.0,30.09,West,261,5.0,11.0,28,0.00,,,-99.99,FreeWX 2.05,2013-05-30 16:17:00,
2013-05-30 12:27:00,87.3,50.2,30.09,West,270,5.0,8.3,28,0.00,,,-99.99,FreeWX 2.05,2013-05-30 16:27:00,
2013-05-30 12:37:00,87.3,50.2,30.06,West,265,5.0,10.1,28,0.00,,,-99.99,FreeWX 2.05,2013-05-30 16:37:00,
2013-05-30 12:47:00,87.8,50.5,30.06,West,263,4.0,8.3,28,0.00,,,-99.99,FreeWX 2.05,2013-05-30 16:47:00,
2013-05-30 12:57:00,88.5,51.3,30.06,West,271,4.0,7.4,28,0.00,,,-99.99,FreeWX 2.05,2013-05-30 16:57:00,
2013-05-30 13:07:00,88.3,50.0,30.06,West,264,4.0,7.8,27,0.00,,,-99.99,FreeWX 2.05,2013-05-30 17:07:00,
2013-05-30 13:17:00,88.7,48.4,30.06,West,272,5.0,7.8,25,0.00,,,-99.99,FreeWX 2.05,2013-05-30 17:17:00,
2013-05-30 13:27:00,89.2,47.7,30.06,West,270,5.0,11.0,24,0.00,,,-99.99,FreeWX 2.05,2013-05-30 17:27:00,
2013-05-30 13:37:00,88.5,48.2,30.06,WSW,258,5.0,9.6,25,0.00,,,-99.99,FreeWX 2.05,2013-05-30 17:37:00,
2013-05-30 13:47:00,88.3,48.0,30.06,West,263,5.0,13.0,25,0.00,,,-99.99,FreeWX 2.05,2013-05-30 17:47:00,
2013-05-30 13:57:00,86.0,49.1,30.06,West,272,6.0,11.6,28,0.00,,,-99.99,FreeWX 2.05,2013-05-30 17:57:00,
2013-05-30 14:07:00,84.4,49.5,30.06,West,268,6.0,10.1,30,0.00,,,-99.99,FreeWX 2.05,2013-05-30 18:07:00,
2013-05-30 14:17:00,84.4,49.5,30.06,West,267,6.0,11.2,30,0.00,,,-99.99,FreeWX 2.05,2013-05-30 18:17:00,
2013-05-30 14:27:00,84.7,50.7,30.06,West,263,5.0,8.3,31,0.00,,,-99.99,FreeWX 2.05,2013-05-30 18:27:00,
2013-05-30 14:37:00,84.0,49.3,30.06,West,262,5.0,10.5,30,0.00,,,-99.99,FreeWX 2.05,2013-05-30 18:37:00,
2013-05-30 14:47:00,84.2,50.2,30.06,West,262,5.0,9.2,31,0.00,,,-99.99,FreeWX 2.05,2013-05-30 18:47:00,
2013-05-30 14:57:00,84.0,50.2,30.06,WSW,258,4.0,7.8,31,0.00,,,-99.99,FreeWX 2.05,2013-05-30 18:57:00,
2013-05-30 15:07:00,84.4,50.4,30.06,West,263,5.0,8.3,31,0.00,,,-99.99,FreeWX 2.05,2013-05-30 19:07:00,
2013-05-30 15:17:00,84.7,50.7,30.06,West,267,4.0,7.8,31,0.00,,,-99.99,FreeWX 2.05,2013-05-30 19:17:00,
2013-05-30 15:27:00,86.5,51.4,30.06,West,266,4.0,10.5,30,0.00,,,-99.99,FreeWX 2.05,2013-05-30 19:27:00,
2013-05-30 15:37:00,86.5,51.4,30.03,West,261,5.0,9.6,30,0.00,,,-99.99,FreeWX 2.05,2013-05-30 19:37:00,
2013-05-30 15:47:00,86.4,50.4,30.03,West,261,5.0,7.4,29,0.00,,,-99.99,FreeWX 2.05,2013-05-30 19:47:00,
2013-05-30 15:57:00,86.4,50.4,30.03,West,264,5.0,8.7,29,0.00,,,-99.99,FreeWX 2.05,2013-05-30 19:57:00,
2013-05-30 16:07:00,87.1,50.9,30.03,West,266,5.0,9.2,29,0.00,,,-99.99,FreeWX 2.05,2013-05-30 20:07:00,
2013-05-30 16:17:00,86.7,47.7,30.03,West,266,5.0,11.0,26,0.00,,,-99.99,FreeWX 2.05,2013-05-30 20:17:00,
2013-05-30 16:27:00,87.3,48.2,30.03,West,268,4.0,8.3,26,0.00,,,-99.99,FreeWX 2.05,2013-05-30 20:27:00,
2013-05-30 16:37:00,86.9,47.8,30.03,West,266,5.0,9.6,26,0.00,,,-99.99,FreeWX 2.05,2013-05-30 20:37:00,
2013-05-30 16:47:00,86.7,48.7,30.03,West,261,5.0,10.5,27,0.00,,,-99.99,FreeWX 2.05,2013-05-30 20:47:00,
2013-05-30 16:57:00,86.7,47.7,30.03,West,263,5.0,8.3,26,0.00,,,-99.99,FreeWX 2.05,2013-05-30 20:57:00,
2013-05-30 17:07:00,87.1,46.9,30.03,West,262,4.0,9.2,25,0.00,,,-99.99,FreeWX 2.05,2013-05-30 21:07:00,
2013-05-30 17:17:00,87.1,48.9,30.03,West,264,5.0,10.1,27,0.00,,,-99.99,FreeWX 2.05,2013-05-30 21:17:00,
2013-05-30 17:27:00,86.4,49.5,30.03,West,265,5.0,11.2,28,0.00,,,-99.99,FreeWX 2.05,2013-05-30 21:27:00,
2013-05-30 17:37:00,85.5,48.6,30.03,West,270,5.0,10.5,28,0.00,,,-99.99,FreeWX 2.05,2013-05-30 21:37:00,
2013-05-30 17:47:00,84.7,48.9,30.03,West,262,5.0,9.2,29,0.00,,,-99.99,FreeWX 2.05,2013-05-30 21:47:00,
2013-05-30 17:57:00,84.9,48.2,30.03,West,267,5.0,9.6,28,0.00,,,-99.99,FreeWX 2.05,2013-05-30 21:57:00,
2013-05-30 18:07:00,84.9,49.1,30.03,West,267,5.0,10.5,29,0.00,,,-99.99,FreeWX 2.05,2013-05-30 22:07:00,
2013-05-30 18:17:00,84.0,46.4,30.03,West,262,5.0,12.1,27,0.00,,,-99.99,FreeWX 2.05,2013-05-30 22:17:00,
2013-05-30 18:27:00,83.7,47.1,30.03,West,265,5.0,9.2,28,0.00,,,-99.99,FreeWX 2.05,2013-05-30 22:27:00,
2013-05-30 18:37:00,83.5,46.9,30.03,West,265,5.0,10.5,28,0.00,,,-99.99,FreeWX 2.05,2013-05-30 22:37:00,
2013-05-30 18:47:00,83.1,47.5,30.03,West,262,5.0,10.1,29,0.00,,,-99.99,FreeWX 2.05,2013-05-30 22:47:00,
2013-05-30 18:57:00,83.1,48.4,30.03,West,265,5.0,12.1,30,0.00,,,-99.99,FreeWX 2.05,2013-05-30 22:57:00,
2013-05-30 19:07:00,82.9,48.2,30.03,West,268,4.0,10.5,30,0.00,,,-99.99,FreeWX 2.05,2013-05-30 23:07:00,
2013-05-30 19:17:00,83.1,49.3,30.06,West,273,4.0,8.3,31,0.00,,,-99.99,FreeWX 2.05,2013-05-30 23:17:00,
2013-05-30 19:27:00,83.1,49.3,30.06,West,277,4.0,6.9,31,0.00,,,-99.99,FreeWX 2.05,2013-05-30 23:27:00,
2013-05-30 19:37:00,82.9,49.1,30.06,West,268,4.0,8.3,31,0.00,,,-99.99,FreeWX 2.05,2013-05-30 23:37:00,
2013-05-30 19:47:00,82.6,49.6,30.06,West,264,4.0,6.9,32,0.00,,,-99.99,FreeWX 2.05,2013-05-30 23:47:00,
2013-05-30 19:57:00,82.4,49.5,30.06,West,262,3.0,6.3,32,0.00,,,-99.99,FreeWX 2.05,2013-05-30 23:57:00,
2013-05-30 20:07:00,82.0,50.0,30.06,West,263,3.0,4.9,33,0.00,,,-99.99,FreeWX 2.05,2013-05-31 00:07:00,
2013-05-30 20:17:00,81.9,49.8,30.06,West,263,2.0,5.4,33,0.00,,,-99.99,FreeWX 2.05,2013-05-31 00:17:00,
2013-05-30 20:27:00,81.5,49.6,30.06,West,260,3.0,5.4,33,0.00,,,-99.99,FreeWX 2.05,2013-05-31 00:27:00,
2013-05-30 20:37:00,81.1,50.0,30.06,West,260,3.0,6.7,34,0.00,,,-99.99,FreeWX 2.05,2013-05-31 00:37:00,
2013-05-30 20:47:00,81.3,49.5,30.06,West,274,4.0,7.4,33,0.00,,,-99.99,FreeWX 2.05,2013-05-31 00:47:00,
2013-05-30 20:57:00,81.3,48.6,30.06,West,266,3.0,6.7,32,0.00,,,-99.99,FreeWX 2.05,2013-05-31 00:57:00,
2013-05-30 21:07:00,81.5,49.6,30.06,WSW,258,4.0,7.4,33,0.00,,,-99.99,FreeWX 2.05,2013-05-31 01:07:00,
2013-05-30 21:17:00,81.3,49.5,30.06,West,268,4.0,9.2,33,0.00,,,-99.99,FreeWX 2.05,2013-05-31 01:17:00,
2013-05-30 21:27:00,81.3,50.2,30.06,West,267,4.0,8.7,34,0.00,,,-99.99,FreeWX 2.05,2013-05-31 01:27:00,
2013-05-30 21:37:00,81.1,50.9,30.06,West,264,4.0,8.7,35,0.00,,,-99.99,FreeWX 2.05,2013-05-31 01:37:00,
2013-05-30 21:47:00,80.4,50.2,30.09,West,265,3.0,6.3,35,0.00,,,-99.99,FreeWX 2.05,2013-05-31 01:47:00,
2013-05-30 21:57:00,79.9,50.5,30.09,West,272,3.0,5.4,36,0.00,,,-99.99,FreeWX 2.05,2013-05-31 01:57:00,
2013-05-30 22:07:00,79.3,51.4,30.09,West,259,2.0,5.4,38,0.00,,,-99.99,FreeWX 2.05,2013-05-31 02:07:00,
2013-05-30 22:17:00,79.0,51.8,30.06,West,268,3.0,6.7,39,0.00,,,-99.99,FreeWX 2.05,2013-05-31 02:17:00,
2013-05-30 22:27:00,79.2,52.7,30.06,West,265,3.0,7.4,40,0.00,,,-99.99,FreeWX 2.05,2013-05-31 02:27:00,
2013-05-30 22:37:00,79.2,50.5,30.09,West,264,4.0,6.7,37,0.00,,,-99.99,FreeWX 2.05,2013-05-31 02:37:00,
2013-05-30 22:47:00,79.2,49.8,30.09,West,269,4.0,8.3,36,0.00,,,-99.99,FreeWX 2.05,2013-05-31 02:47:00,
2013-05-30 22:57:00,79.2,49.8,30.09,West,259,4.0,6.9,36,0.00,,,-99.99,FreeWX 2.05,2013-05-31 02:57:00,
2013-05-30 23:07:00,79.0,50.5,30.09,West,262,4.0,8.3,37,0.00,,,-99.99,FreeWX 2.05,2013-05-31 03:07:00,
2013-05-30 23:17:00,78.8,50.4,30.09,West,263,4.0,7.8,37,0.00,,,-99.99,FreeWX 2.05,2013-05-31 03:17:00,
2013-05-30 23:27:00,78.6,50.9,30.09,West,264,4.0,8.3,38,0.00,,,-99.99,FreeWX 2.05,2013-05-31 03:27:00,
2013-05-30 23:37:00,78.6,51.6,30.09,West,265,4.0,6.9,39,0.00,,,-99.99,FreeWX 2.05,2013-05-31 03:37:00,
2013-05-30 23:47:00,78.4,51.4,30.09,West,265,3.0,6.3,39,0.00,,,-99.99,FreeWX 2.05,2013-05-31 03:47:00,
2013-05-30 23:57:00,78.4,52.2,30.09,West,266,4.0,7.8,40,0.00,,,-99.99,FreeWX 2.05,2013-05-31 03:57:00,